User: anonymous   Login
Location: Malcolm X Square
(37.7810°N, 122.4297°W)
Time: 04:07:22
(UTC+00:00)
Language:

Cosmos 1656 Rocket - Orbit

View from above orbital plane
View from above orbital plane
View from above satellite
View from above satellite

Ground track
Ground track

The orbit data is extracted from the following two-line orbital elements,

1 15772U 85042D   24174.90231331  .00000161  00000-0  94484-4 0  9992
2 15772  71.1087 327.4122 0034770  14.8077  97.8106 14.21637459 25580
Epoch (UTC): 22 June 2024 21:39:19
Eccentricity: 0.0034770
inclination: 71.1087°
perigee height: 795 km
apogee height: 845 km
right ascension of ascending node: 327.4122°
argument of perigee: 14.8077°
revolutions per day: 14.21637459
mean anomaly at epoch: 97.8106°
orbit number at epoch: 2558

The dashed part of the orbit path shows where the satellite is in the earth's shadow,  

DLR